Location: Narrillos del Rebollar
(40.6649°N, 4.9658°W)
Time: 09:02:15
(UTC+00:00)

Daily predictions for brighter satellites

Satellite Brightness Start Highest point End
(mag) Time Altitude Azimuth Time Altitude Azimuth Time Altitude Azimuth
Cosmos 2233 Rocket 4.4 18:06:34 10° N 18:12:29 41° ENE 18:18:22 10° SE
Cosmos 2360 Rocket 3.5 18:08:39 10° NW 18:14:02 48° WSW 18:19:24 10° S
Meteor 1-11 4.4 18:09:54 10° S 18:15:18 55° E 18:20:50 10° NNE
Cosmos 1725 Rocket 4.0 18:11:17 10° N 18:17:32 67° E 18:23:45 10° SSE
Cosmos 1315 Rocket 3.1 18:14:41 10° N 18:18:15 38° ENE 18:21:49 10° SSE
Cosmos 1867 4.1 18:13:56 10° SW 18:19:18 63° NW 18:24:44 10° NNE
Lacrosse 5 rocket 2.9 18:20:52 10° W 18:23:43 24° NW 18:26:39 10° NNE
Atlas Centaur 2 4.0 18:17:30 10° SW 18:24:09 31° S 18:30:00 10° ESE
SL-08 R/B 4.5 18:18:16 10° N 18:24:22 59° E 18:30:21 10° SSE
SAR-Lupe-1 4.1 18:21:43 10° SSE 18:25:13 58° ENE 18:28:45 10° N
Cosmos 2061 Rocket 4.3 18:21:34 10° N 18:27:43 47° ENE 18:33:44 10° SSE
SJ-6F 4.4 18:24:49 10° SSE 18:28:47 87° WSW 18:32:44 10° NNW
CZ-4C R/B 1.6 18:25:01 10° SSW 18:28:58 89° NW 18:33:57 10° NE
Helios 1A Rocket 4.3 18:28:45 11° E 18:29:06 11° E 18:30:02 10° ESE
BlueWalker 3 2.7 18:28:57 10° WNW 18:32:23 48° SW 18:35:48 10° SSE
Radarsat Rocket 4.2 18:27:37 10° SE 18:33:10 48° ENE 18:39:00 10° N
CARTOSAT-1 4.2 18:29:28 10° SE 18:33:12 32° ENE 18:36:55 10° N
Cosmos 2151 Rocket 3.7 18:28:54 10° N 18:33:19 55° E 18:37:43 10° SSE
Tiangong -0.2 18:32:55 10° SSW 18:35:10 18° SSE 18:37:06 12° ESE
USA 290 3.3 18:33:58 10° SW 18:37:02 45° WNW 18:40:08 10° N
NOSS 0 Rocket 4.3 18:33:13 10° NNW 18:39:10 44° ENE 18:45:04 10° SE
Cosmos 1356 Rocket 3.2 18:36:59 10° N 18:40:54 62° E 18:44:48 10° SSE
SAR-Lupe-4 3.7 18:37:46 10° S 18:41:20 80° WSW 18:44:55 10° NNW
Cosmos 2297 Rocket 2.5 18:39:58 10° S 18:45:18 45° ESE 18:50:41 10° NE
Cosmos 1607 4.3 18:39:29 10° SW 18:45:33 66° NW 18:51:43 10° NNE
BREEZE-M DEB (TANK) 4.4 18:46:05 10° NW 18:49:37 41° NNE 18:56:52 16° E
Cosmos 1975 Rocket 4.4 18:46:57 10° SE 18:49:58 19° E 18:50:37 18° ENE
Cosmos 1455 Rocket 3.9 18:49:50 10° NNE 18:53:32 27° ENE 18:57:13 10° SE
Cosmos 2221 Rocket 3.5 18:50:12 10° S 18:54:36 72° E 18:59:05 10° NNE
YAOGAN 1 2.6 18:50:43 10° SSE 18:54:58 84° W 18:59:15 10° NNW
Cosmos 1125 Rocket 3.7 18:51:09 10° N 18:56:09 46° ENE 19:01:07 10° SE
Delta 2 Rocket 4.2 18:56:48 10° SW 18:59:24 24° SSE 19:00:39 19° SE
NOAA 6 4.0 18:56:13 10° SSE 19:01:18 67° ENE 19:06:25 10° N
Okean 2 Rocket 3.0 18:58:06 10° N 19:02:31 88° E 19:06:53 10° S
Spot 4 Rocket 4.0 18:58:22 10° SSE 19:03:29 88° E 19:08:37 10° NNW
Okean 1 Rocket 2.9 19:01:25 10° N 19:05:50 81° E 19:10:10 10° S
DMSP B5D1-3 4.4 19:01:58 10° NNE 19:07:04 68° ESE 19:12:08 10° S
NOSS 3-3 (C) 4.0 19:04:57 10° SW 19:09:59 63° NW 19:15:57 10° NNE
SL-19 R/B 4.4 19:05:20 10° SSE 19:11:34 81° ENE 19:17:37 10° NNW
Sich 1 Rocket 3.6 19:07:39 10° N 19:12:13 89° E 19:16:46 10° S
COSMOS 2428 2.8 19:07:45 10° NNW 19:13:29 80° WSW 19:19:12 10° SSE
Resurs 01 Rocket 1.5 19:11:26 10° SSE 19:15:47 72° ENE 19:20:11 10° N
SeaSat 1 4.3 19:12:00 10° S 19:16:20 32° WSW 19:20:43 10° NW
Cosmos 1980 3.9 19:11:37 10° NNW 19:17:07 49° ENE 19:20:52 20° SE
Cosmos 2263 Rocket 3.8 19:15:00 10° SE 19:16:37 16° SE 19:16:37 16° SE
Cosmos 44 Rocket 3.5 19:14:47 10° S 19:19:26 48° ESE 19:21:21 31° ENE
Cosmos 773 Rocket 4.1 19:15:52 10° S 19:20:57 54° ESE 19:25:06 16° NNE
USA 306 4.2 19:19:22 10° NNW 19:19:32 11° NNW 19:19:32 11° NNW
ATLAS 5 CENTAUR R/B 3.2 19:17:10 10° NW 19:21:34 42° WSW 19:26:54 10° S
Cosmos 2237 Rocket 2.3 19:17:12 10° NNW 19:22:44 51° ENE 19:25:52 25° SE
PSLV R/B 3.9 19:20:26 10° S 19:24:31 62° WSW 19:28:36 10° NNW
COSMO-SKYMED 1 3.9 19:21:31 10° N 19:25:20 38° WNW 19:29:08 10° SW
Aureole 3 Rocket 2.5 19:22:27 10° N 19:26:23 80° W 19:29:33 10° S
BREEZE-M DEB (TANK) 4.0 19:24:03 10° WNW 19:27:37 52° SW 19:33:13 12° SE
Cosmos 836 Rocket 4.4 19:29:10 10° SSW 19:34:25 88° ESE 19:39:44 10° NNE
SJ-6B 2.4 19:39:27 77° SSW 19:39:38 81° WSW 19:43:05 10° NNW
BREEZE-M DEB (TANK) 3.6 19:36:53 10° NW 19:41:22 84° NE 19:46:30 26° ESE
Cosmos 2227 Rocket 2.1 19:38:41 10° S 19:44:11 58° ESE 19:45:30 46° ENE
SPOT 5 3.6 19:47:23 37° NNE 19:47:23 37° NNE 19:50:44 10° N
SL-16 R/B 3.7 19:41:40 10° N 19:44:20 20° NNE 19:44:20 20° NNE
Cosmos 2285 Rocket 4.1 19:41:10 10° NNW 19:47:35 76° WSW 19:53:56 10° S
Cosmos 1816 Rocket 4.3 19:51:26 10° S 19:57:33 76° E 20:03:44 10° N
Gbstr 26 Del rocket 4.5 19:53:10 10° SSW 19:59:38 48° SE 19:59:56 47° SE
NOSS 3-4 (A) 3.9 19:54:13 10° NNW 20:01:05 62° NE 20:02:40 52° E
NOSS 3-4 (C) 3.9 19:54:30 10° NNW 20:01:22 61° NE 20:02:53 52° E
Helios 1A Rocket 4.1 20:02:00 32° W 20:02:00 32° W 20:04:30 10° SW
Cosmos 2034 Rocket 4.1 19:57:44 10° N 20:02:53 52° NE 20:02:53 52° NE
Cosmos 1072 Rocket 4.4 19:59:19 10° N 20:05:36 83° W 20:11:44 10° S
BREEZE-M DEB (TANK) 4.2 19:46:54 10° W 20:08:38 67° NNW 20:10:46 46° NE
Tiangong 0.8 20:08:37 10° WSW 20:09:26 17° WSW 20:09:26 17° WSW
Atlas Centaur 2 3.4 20:05:48 10° WSW 20:12:12 34° S 20:12:54 33° S
CZ-4C R/B 4.3 20:15:27 10° WNW 20:18:13 15° NNW 20:21:07 11° N
CSL-04 Debris 4.5 20:26:10 62° NW 20:26:10 62° NW 20:30:44 10° NNW
CSL-04 Rocket 4.0 20:29:01 59° WNW 20:29:01 59° WNW 20:33:33 10° NNW
BREEZE-M (TANK) 3.7 20:24:53 10° WNW 20:28:32 78° SW 20:28:32 78° SW
Cosmos 2297 Rocket 4.1 20:24:46 10° WSW 20:29:30 27° NW 20:34:17 10° N
Cosmos 2344 3.7 20:53:00 10° SW 21:00:58 63° NW 21:01:16 62° NW
Cosmos 2263 Rocket 4.3 20:56:53 10° SW 20:58:24 19° SW 20:58:24 19° SW
Cosmos 2237 Rocket 4.3 21:02:05 10° NW 21:06:21 22° W 21:07:48 20° WSW
Cosmos 2227 Rocket 4.4 21:24:19 10° WSW 21:27:24 20° WNW 21:27:24 20° WNW
